GW6892 Weather Reports


time (UTC)temp
C
wind
direction
speed
KPH
gust
KPH
rain 1hr
cm
rain 24hr
cm
rain mn
cm
humidity
%
barometer
mb
20260507010031 13 214 3.2 6.4 0.03 1.91 1.91 94 1004.4
20260507004524 13 85 1.6 1.6 0.03 1.88 1.88 95 1004.3
20260507003011 13 188 0.0 3.2 0.05 1.88 1.88 95 1004.0
20260507001516 13 212 1.6 3.2 0.05 1.88 1.88 95 1003.9
20260507000022 14 155 1.6 3.2 0.08 1.88 1.88 95 1003.7
20260506234512 14 262 0.0 3.2 0.05 1.85 1.85 95 1003.7
20260506233026 14 231 1.6 11.3 0.05 1.83 1.83 95 1003.4
20260506231518 14 347 1.6 9.7 0.08 1.83 1.83 95 1003.5
20260506230019 15 245 1.6 8.0 0.08 1.80 1.80 94 1003.4
20260506224522 15 262 4.8 16.1 0.15 1.80 1.80 94 1003.2
20260506223020 15 230 3.2 12.9 0.25 1.80 1.78 94 1003.4
20260506221516 15 238 3.2 12.9 0.41 1.78 1.75 94 1003.6
20260506220018 15 137 1.6 17.7 0.56 1.83 1.73 94 1003.6
20260506214522 15 105 1.6 6.4 0.56 1.78 1.65 94 1003.7
20260506213023 15 352 1.6 9.7 0.56 1.65 1.52 93 1003.9
20260506211538 15 281 3.2 9.7 0.38 1.47 1.32 94 1003.9
20260506210033 15 292 3.2 14.5 0.23 1.30 1.17 93 1004.1
20260506204522 15 262 0.0 4.8 0.23 1.22 1.09 93 1004.3
20260506203017 15 103 0.0 4.8 0.18 1.09 0.97 93 1004.4
20260506201527 15 285 4.8 9.7 0.23 1.09 0.97 92 1004.8
20260506200031 15 228 4.8 9.7 0.25 1.07 0.94 93 1004.7
20260506194524 15 29 1.6 14.5 0.23 0.99 0.86 92 1004.9
20260506193030 15 255 3.2 12.9 0.18 0.91 0.79 92 1004.9
20260506191519 15 228 1.6 4.8 0.15 0.86 0.74 93 1005.1
20260506190028 15 264 1.6 6.4 0.15 0.81 0.69 92 1005.3
20260506184531 15 279 0.0 6.4 0.15 0.76 0.64 92 1005.3
20260506183027 15 204 3.2 6.4 0.23 0.74 0.61 92 1005.5
20260506181535 15 230 0.0 1.6 0.41 0.71 0.58 93 1006.0
20260506180025 15 231 0.0 1.6 0.53 0.66 0.53 93 1006.1
20260506174523 15 237 0.0 3.2 0.48 0.61 0.48 92 1006.6
20260506173015 15 106 0.0 1.6 0.38 0.51 0.38 91 1006.4
20260506171517 16 84 0.0 1.6 0.18 0.30 0.18 89 1006.5
20260506170016 16 113 0.0 1.6 0.00 0.13 0.00 84 1006.4
20260506164510 17 84 0.0 4.8 0.00 0.13 0.00 77 1006.4
20260506163014 17 182 0.0 3.2 0.00 0.13 0.00 76 1006.7
20260506161517 16 21 1.6 4.8 0.00 0.13 0.00 79 1006.9
20260506160020 16 283 0.0 1.6 0.00 0.13 0.00 79 1007.6
20260506154522 17 289 0.0 3.2 0.00 0.13 0.00 78 1007.7
20260506153006 16 279 1.6 3.2 0.00 0.13 0.00 76 1008.0
20260506151514 16 242 1.6 4.8 0.00 0.13 0.00 76 1007.9
20260506150016 16 300 1.6 4.8 0.00 0.13 0.00 77 1007.9
20260506144522 16 240 1.6 4.8 0.00 0.13 0.00 76 1008.0
20260506143028 17 250 1.6 9.7 0.00 0.13 0.00 75 1007.8
20260506141509 16 136 1.6 8.0 0.00 0.13 0.00 75 1007.8
20260506140020 16 262 3.2 8.0 0.00 0.13 0.00 74 1007.8
20260506134516 16 288 1.6 6.4 0.00 0.13 0.00 75 1008.0
20260506133015 16 227 0.0 4.8 0.00 0.13 0.00 77 1008.1
20260506131528 16 272 0.0 4.8 0.00 0.13 0.00 77 1008.1
20260506130012 16 278 0.0 3.2 0.00 0.13 0.00 78 1008.1
20260506124518 16 246 0.0 3.2 0.00 0.13 0.00 79 1008.1
20260506123021 15 283 1.6 4.8 0.00 0.13 0.00 77 1008.2
20260506121520 15 268 1.6 3.2 0.00 0.13 0.00 78 1008.2
20260506120018 15 294 0.0 6.4 0.00 0.13 0.00 85 1008.5
20260506114529 13 42 0.0 3.2 0.00 0.13 0.00 88 1008.4
20260506113019 13 32 0.0 3.2 0.00 0.13 0.00 88 1008.6
20260506111523 13 311 1.6 4.8 0.00 0.13 0.00 85 1008.4
20260506110026 13 198 1.6 6.4 0.00 0.13 0.00 87 1008.6
20260506104541 12 200 0.0 3.2 0.00 0.13 0.00 91 1008.8
20260506103020 12 165 0.0 1.6 0.00 0.13 0.00 91 1008.7
20260506101516 12 161 0.0 0.0 0.00 0.13 0.00 90 1008.6
20260506100025 12 161 0.0 0.0 0.00 0.13 0.00 89 1008.4
20260506094533 12 161 0.0 0.0 0.00 0.13 0.00 88 1008.2
20260506093024 13 161 0.0 1.6 0.00 0.13 0.00 87 1008.1
20260506091524 13 161 0.0 1.6 0.00 0.13 0.00 87 1008.2
20260506090021 13 162 0.0 1.6 0.00 0.13 0.00 87 1008.4
20260506084518 13 162 0.0 3.2 0.00 0.13 0.00 85 1008.3
20260506083037 13 161 0.0 3.2 0.00 0.13 0.00 83 1008.2
20260506081527 14 136 0.0 4.8 0.00 0.13 0.00 82 1008.3
20260506073022 15 188 1.6 8.0 0.00 0.13 0.00 80 1008.1
20260506071525 15 149 1.6 8.0 0.00 0.13 0.00 82 1007.7
20260506061528 15 245 1.6 3.2 0.00 0.13 0.00 82 1007.6
20260506043011 14 208 1.6 3.2 0.00 0.13 0.00 88 1007.5
20260506041523 14 153 0.0 1.6 0.00 0.13 0.00 87 1007.7
20260506040040 15 141 0.0 3.2 0.00 0.13 0.00 85 1007.8
20260506034512 15 135 0.0 1.6 0.00 0.13 0.13 83 1007.7
20260506033015 14 135 1.6 1.6 0.00 0.13 0.13 85 1008.1
20260506031514 14 101 0.0 1.6 0.00 0.13 0.13 86 1008.0
20260506030012 15 101 0.0 1.6 0.00 0.13 0.13 85 1007.7
20260506024536 15 101 0.0 3.2 0.00 0.13 0.13 83 1007.7
20260506023013 15 17 0.0 4.8 0.00 0.13 0.13 82 1007.6
20260506021533 15 274 0.0 9.7 0.00 0.13 0.13 80 1007.5
20260506020022 15 221 0.0 3.2 0.00 0.13 0.13 83 1007.5
20260506014523 15 238 0.0 8.0 0.00 0.13 0.13 81 1007.7
20260506013013 16 203 1.6 3.2 0.00 0.13 0.13 80 1007.8
20260506011521 16 200 0.0 4.8 0.00 0.13 0.13 78 1007.6